www.pogodaiklimat.ru

Погода и климат >> Архив погоды >> Россия >> Ненецкий АО >> Имени Федорова


ПОГОДА в Имени Федорова

  • Прогноз погоды в Имени Федорова
  • Монитор погоды в Имени Федорова
  • Климат города

АРХИВ ПОГОДЫ в Имени Федорова

Время (UTC), дата Ветер
(напр.,м/с)
 
Видим.   Явления Облачность Т
(С)
Тd
(С)
f
(%)
Тe
(С)
Тes
(С)
Комфортность P
(гПа)
Po
(гПа)
Тmin
(С)
Tmax
(С)
R
(мм)
R24
(мм)
S
(см)
09 18.06 З 5 10 км 10/10 570 м
[Sc]
+1.1 -4.0 69 -4 -4 1009.3 1008.0
12 18.06 З 4 10 км 10/10 630 м
[Sc]
+1.5 -3.1 71 -3 -3 1009.8 1008.5
15 18.06 З 4 10 км 10/10 720 м
[Sc]
+1.2 -0.0 92 -4 -4 1009.5 1008.1 +1.7
18 18.06 ЮЗ 3 20 км 10/10 660 м
[Sc]
+0.7 -0.5 92 -4 -4 1009.6 1008.3
21 18.06 З 4 20 км 4/4 300 м
[Sc]
+0.2 -0.8 93 -5 -5 1008.9 1007.6
00 19.06 З 3 10 км 10/10 630 м
[Sc]
+0.6 -1.5 86 -4 -4 1008.9 1007.6
03 19.06 З 3 10 км 10/10 600 м
[Sc]
+0.6 -2.0 83 -4 -4 1008.5 1007.2 -0.2 <0.5
06 19.06 З 2 20 км 10/10 660 м
[Sc]
+1.1 -2.2 79 -2 -2 1008.4 1007.1
09 19.06 З 3 20 км 10/10 700 м
[Sc]
+1.5 -2.3 76 -3 -3 1008.2 1006.9
12 19.06 В 3 20 км 10/10 600 м
[Sc]
+1.3 -1.6 81 -3 -3 1007.8 1006.5
15 19.06 СВ 3 20 км 10/10 540 м
[Sc]
+0.6 -2.0 83 -4 -4 1006.8 1005.5 +1.7
18 19.06 СВ 4 20 км 10/10 360 м
[Sc]
-1.1 -2.5 90 -7 -7 1005.4 1004.1
21 19.06 СВ 5 10 км 10/10 240 м
[St]
-1.9 -2.5 96 -9 -9 1004.3 1003.0
00 20.06 СВ 6 4000 м дымка 10/10 240 м
[St]
-1.9 -2.4 96 -9 -9 1002.9 1001.5
03 20.06 СВ 6 500 м туман ?/? -2.0 -2.4 97 -9 -9 1001.7 1000.4 -2.3 <0.5
06 20.06 СВ 7 500 м туман ?/? -1.1 -3.6 83 -8 -8 1000.9 999.6
09 20.06 СВ 6 500 м туман ?/? -1.1 -3.8 82 -8 -8 1001.1 999.8
12 20.06 СВ 6 500 м туман ?/? -0.4 -3.1 82 -7 -7 1001.2 999.9
15 20.06 СВ 6 500 м туман ?/? -0.8 -3.4 83 -8 -8 1001.3 1000.0 -0.4
18 20.06 СВ 7 200 м туман ?/? -0.7 -1.0 98 -8 -8 1001.5 1000.2
21 20.06 10 км {туман} н/о -0.8 -1.3 96 -7 -7 1001.9 1000.5
00 21.06 СВ 7
{10}
200 м туман ?/? -1.2 -1.6 97 -9 -9 1002.5 1001.2
03 21.06 СВ 8-10
{11}
500 м туман ?/? -1.2 -1.6 97 -9 -9 1002.5 1002.1 -1.8 <0.5
06 21.06 СВ 8-10
{11}
1000 м дымка {туман} 10/10 210 м
[St]
-1.3 -1.7 97 -9 -9 1003.9 1002.6
09 21.06 В 7
{10}
10 км 10/10 240 м
[St]
-1.0 -1.4 97 -9 -9 1004.6 1003.3
12 21.06 СВ 9-10
{10}
10 км 10/10 240 м
[St]
-0.9 -1.3 97 -9 -9 1005.6 1004.3
15 21.06 СВ 8
{11}
4000 м дымка 10/10 210 м
[St]
-1.1 -1.4 98 -9 -9 1006.2 1004.9 -0.9
18 21.06 СВ 7-10
{11}
4000 м дымка 10/10 240 м
[St]
-1.1 -3.4 84 -8 -8 1006.3 1005.0
21 21.06 В 7
{10}
1000 м дымка 10/10 210 м
[St]
-1.4 -3.7 84 -9 -9 1006.9 1005.5
00 22.06 В 7 4000 м дымка 10/10 270 м
[St]
-1.5 -3.9 84 -9 -9 1006.5 1005.2
03 22.06 В 9-11
{11}
10 км 10/10 240 м
[St]
-1.4 -3.8 84 -10 -10 1006.0 1004.7 -1.6 <0.5
06 22.06 В 7
{11}
2000 м дымка 10/10 240 м
[St]
-0.9 -3.3 84 -8 -8 1006.5 1005.2
09 22.06 В 11-13
{13}
10 км 10/10 270 м
[St]
-0.8 -3.3 83 -10 -10 1005.9 1004.5
12 22.06 В 10-13
{14}
10 км 10/10 270 м
[St]
-0.6 -3.2 83 -9 -9 1005.9 1004.6
15 22.06 СВ 11-13
{14}
10 км 8/0
[Ci fib]
-0.2 -2.8 83 -9 -9 1004.8 1003.4 -0.2
18 22.06 СВ 12-15
{16}
10 км 9/0
[Ac trans Ci fib]
+0.2 -2.8 80 -8 -8 1003.6 1002.3
21 22.06 В 10-13
{16}
10 км 9/9 840 м
[Sc]
+0.8 -2.6 78 -7 -7 1002.4 1001.1
00 23.06 В 11-13
{14}
10 км 10/10 400 м
[Sc]
+0.8 -2.4 79 -7 -7 1001.1 999.8
03 23.06 В 9-12
{15}
1000 м дымка 10/10 210 м
[St]
+0.3 -2.3 83 -7 -7 1000.2 998.9 -0.2 <0.5
06 23.06 В 7
{12}
4000 м дымка 10/10 240 м
[St]
+0.6 -1.9 83 -6 -6 998.8 997.5
09 23.06 В 7
{11}
200 м туман ?/? +0.8 -1.0 88 -6 -6 998.0 996.7
12 23.06 В 5 200 м туман ?/? +0.5 +0.2 98 -6 -6 996.8 995.4
15 23.06 н/о +0.7 995.3 993.9
18 23.06 С 3 500 м туман ?/? +0.1 -0.2 98 -5 -5 993.7 992.3
21 23.06 СЗ 3 500 м слабый дождь {туман} туман ?/? +0.2 -0.1 98 -5 -5 992.1 990.8
00 24.06 З 4 10 км слабый дождь {туман} 10/10 240 м
[Frnb Ns]
+0.1 -2.2 84 -5 -5 992.7 991.4
03 24.06 С 3 20 км {дождь} 10/10 300 м
[Sc]
+0.3 -2.1 84 993.8 992.5 1
06 24.06 С 2 10 км {дождь} 10/10 400 м
[Sc]
+0.4 -2.1 83 -3 -3 995.3 994.0
09 24.06 СВ 1 10 км {ливн. осадки} 10/10 480 м
[Sc]
+0.9 -1.6 83 -1 -1 996.8 995.5
12 24.06 В 2 500 м туман {ливн. осадки} ?/? +0.5 -2.0 83 -3 -3 997.9 996.6
15 24.06 В 3 500 м туман ?/? +0.3 -2.1 84 -4 -4 998.6 997.3 +0.9 0.6
18 24.06 СВ 2 500 м туман ?/? +0.1 -2.3 84 -3 -3 999.1 997.8
21 24.06 СЗ 3 500 м туман ?/? 0.0 -0.3 98 -5 -5 999.6 998.2
00 25.06 СЗ 2 н/о н/о -0.2 -0.4 99 -4 -4 1000.5 999.2
03 25.06 С 2 10 км {туман} 10/10 360 м
[Sc]
0.0 -0.2 99 -4 -4 1001.1 999.8 -0.3 <0.5
06 25.06 С 4 10 км {туман} 10/10 870 м
[Sc]
+0.8 -1.3 86 -4 -4 1001.8 1000.5

 

Местоположение метеостанции Имени Федорова (Ненецкий АО, Россия): широта 70.45 долгота 59.08 высота над уровнем моря 12 м.

В архиве по умолчанию представлена погода в Имени Федорова за последнюю неделю. Архивные данные за месяц целиком и за предыдущие месяцы, начиная с января 2011 года, Вы можете получить, выбрав интересующий диапазон дат из раскрывающегося списка и нажав кнопку "Ввод!".

Внимание! Время в таблицах - всемирное. Для получения местного времени необходимо прибавить поправку, которая в Имени Федорова равна 3 ч.

Смотрите также архив погоды в соседних городах и на ближайших метеорологических станциях:

Погода на Мысе Белый Нос (Ненецкий АО, Россия) (104 км)
Погода в Амдерме (Ненецкий АО, Россия) (124 км)
Погода в Варандее (Ненецкий АО, Россия) (186 км)
Погода на Мысе Константиновском (Ненецкий АО, Россия) (253 км)
Погода в Усть-Каре (Ненецкий АО, Россия) (261 км)
Погода в Марресаля (Ямало-Ненецкий АО, Россия) (304 км)
Погода в Inari Angeli (Финляндия) (309 км)
Погода в Малых Кармакулах (Архангельская область, Россия) (310 км)
Погода в Хорей-Вере (Ненецкий АО, Россия) (339 км)
Погода в Сенгейском Шаре (Ненецкий АО, Россия) (376 км)

Пояснения к столбцам:

Ветер - указаны скорость ветра в м/с - средняя за 10 мин, порывы в срок и между сроками (в фигурных скобках) и направление, откуда дует ветер: С - северный, СВ - северо-восточный, В - восточный, ЮВ - юго-восточный, Ю - южный, ЮЗ - юго-западный, З - западный, СЗ - северо-западный.
Видимость - горизонтальная дальность видимости в метрах или километрах. При видимости от 1 до 10 км при отсутствии осадков обычно наблюдается дымка, при ухудшении видимости до 1 км и менее - туман. В сухую погоду видимость может ухудшаться дымом, пылью или мглою.
Явления - указаны атмосферные явления, наблюдавшиеся в срок или в последний час перед сроком; фигурными скобками обозначены явления, наблюдавшиеся между сроками (за 1-3 часа до срока); квадратными скобками обозначены град или гололедные отложения с указанием их диаметра в мм.
Облачность - указаны через наклонную черту общая и нижняя облачность в баллах и высота нижней границы облаков в метрах; квадратными скобками обозначены формы облаков: Ci - перистые, Cs - перисто-слоистые, Cc - перисто-кучевые, Ac - высококучевые, As - высокослоистые, Sc - слоисто-кучевые, Ns - слоисто-дождевые, Cu - кучевые, Cb - кучево-дождевые. Подробнее классификацию облаков см. в Атласе облаков (PDF).
T - Температура воздуха - температура, измеренная на высоте 2 м над землей.
Td - Температура точки росы - температура, при понижении до которой содержащийся в воздухе водяной пар достигнет насыщения.
f - Относительная влажность воздуха - влажноcть воздуха, измеренная на высоте 2 м над землей.
Te - Эффективная температура - температура, которую ощущает одетый по сезону человек в тени. Характеристика душности погоды. При расчете учитывается влияние влажности воздуха и скорости ветра на теплоощущения человека.
Tes - Эффективная температура на солнце - температура, которую ощущает человек, с поправкой на солнечный нагрев. Характеристика знойности погоды. Зависит от высоты солнца над горизонтом, облачности и скорости ветра. Ночью, в пасмурную погоду, а также при ветре 12 м/с и более поправка равна нулю.
P - Атмосферное давление - приведенное к уровню моря атмосферное давление.
Po - Атмосферное давление - измеренное на уровне метеостанции атмосферное давление.
Tmin - Минимальная температура - минимум температуры воздуха на высоте 2 м над землей.
Tmax - Максимальная температура - максимум температуры воздуха на высоте 2 м над землей.
R - Количество осадков - Количество выпавших осадков за период времени, мм. При наведении курсора мыши на число - период времени, за который выпало указанное количество осадков.
R24 - Количество осадков - Количество выпавших осадков за 24 часа, мм.
S - Снежный покров - Высота снежного покрова, см. При наведении курсора мыши на число - состояние снежного покрова и степень покрытия местности в баллах.